Location: Vista Encantada
(35.1109°N, 106.5681°W)
Time: 08:17:48
(UTC+00:00)

Cosmos 1980 Rocket - Pass Details

Date: 29 October 2020
Orbit: 830 x 848 km, 71.0° (Epoch: 05 December)

Event Time Altitude Azimuth Distance (km) Brightness Sun altitude
Rises 12:52:22 0° 327° (NNW) 3,378 4.9 -7.4°
Reaches altitude 10° 12:55:03 10° 317° (NW) 2,441 4.1 -6.8°
Maximum altitude 12:59:53 31° 257° (WSW) 1,432 3.0 -5.9°
Drops below altitude 10° 13:04:42 10° 197° (SSW) 2,435 4.6 -4.9°
Sets 13:07:23 0° 187° (S) 3,368 5.4 -4.4°
